Regional Weather Roundup
Issued by NWS

Home | Current Version | Previous Version | Graphics & Text | Print | Product List | Glossary On
Versions: 1 2 3 4 5 6 7 8 9 10 11 12 13 14 15 16 17 18 19 20 21 22 23 24 25 26 27 28 29 30 31 32 33 34 35 36 37 38 39 40 41 42 43 44 45 46 47 48 49 50
000
ASUS43 KFSD 012310
RWRSD

WEATHER ROUNDUP FOR SOUTH DAKOTA
NATIONAL WEATHER SERVICE SIOUX FALLS SD
600 PM CDT SAT AUG 01 2015

NOTE: "FAIR" INDICATES FEW OR NO CLOUDS BELOW 12,000 FEET WITH NO
SIGNIFICANT WEATHER AND/OR OBSTRUCTIONS TO VISIBILITY.


SDZ001>005-009-010-012>017-020000-
NORTHWEST AND NORTH CENTRAL SOUTH DAKOTA

CITY           SKY/WX    TMP DP  RH WIND       PRES   REMARKS
BUFFALO          N/A     96  29   9 W14G23    29.83F
FAITH            N/A     96  34  11 N10       29.88F
MOBRIDGE       SUNNY     94  51  23 NW9       29.78F
$$

SDZ012>016-024>037-041>051-057-063-072>074-020000-
SOUTHWEST AND SOUTH CENTRAL SOUTH DAKOTA

CITY           SKY/WX    TMP DP  RH WIND       PRES   REMARKS
RAPID CTY ARPT SUNNY     92  47  21 S3        29.94F
PIERRE         SUNNY     92  60  34 SW20G29   29.80F
CUSTER         SUNNY     80  49  33 E7        30.13F
ELLSWORTH AFB  SUNNY     94  34  12 N10       29.93F
PHILIP         SUNNY     90  63  40 SW16      29.87F
PINE RIDGE     SUNNY     85  62  46 SE9       29.96F
WINNER         FAIR      91  57  31 SW18G28   29.89F
$$

SDZ004>011-016>023-039-040-020000-
NORTHEAST SOUTH DAKOTA

CITY           SKY/WX    TMP DP  RH WIND       PRES   REMARKS
ABERDEEN       SUNNY     92  66  42 S8        29.74F
WATERTOWN      SUNNY     85  61  44 SW15G24   29.82F
BROOKINGS      SUNNY     84  64  51 SW16      29.87F
SISSETON         N/A     89  63  41 W12       29.75F
$$

SDZ017-020-022-023-036>040-048>070-020000-
SOUTHEAST SOUTH DAKOTA

CITY           SKY/WX    TMP DP  RH WIND       PRES   REMARKS
SIOUX FALLS    MOSUNNY   84  62  47 VRB6      29.87F
HURON          SUNNY     88  65  46 SW10      29.79F
CHAMBERLAIN    SUNNY     89  60  38 W17G25    29.86S
MITCHELL       SUNNY     87  62  43 SW9       29.84F
YANKTON        SUNNY     88  55  33 SW10      29.85F
$$

ABBREVIATIONS USED IN REMARKS
   TC - TEMPERATURE IN CELSIUS
  WCI - WIND CHILL INDEX
   HX - HEAT INDEX
  VSB - VISIBILITY




USA.gov is the U.S. government's official web portal to all federal, state and local government web resources and services.